Back to catalog

STARLINK-31571

AliveCommunicationsVLEO
NORAD 59362·PAYLOAD·🇺🇸 United States

Launched Mar 31, 2024 from Cape Canaveral Space Force Station

Loading…

Next Passes (next 24 hours)

TLE

FreshSource: CelesTrak SupGP

Epoch: Sep 15, 2026, 02:25 UTC

1 59362C 24060Q   26258.10118056 -.00006310  00000+0 -22856-3 0  2587
2 59362  42.9992 270.3486 0001332 265.7692 274.5860 15.27580296    16

Track STARLINK-31571 in real time with AllMySat

Download on the App Store